Flag for U.S.A. Weather past 2 weeks in Austin, Texas, U.S.A.

Now
57 °F

Mostly cloudy.


Feels Like: 57 °F
Forecast: 56 / 71 °F
Wind: 5 mph from North

Location: Camp Mabry / Austin City


UV Index: 0 (Low)

Visibility: 10 mi


Pressure: 30.01 "Hg

Humidity: 87%

Dew point: 53 °F

Location of AustinLocation

Historic Weather in Austin

°F

Austin temperature yesterday

Maximum temperature yesterday: 72 °F (at 3:51 PM)
Minimum temperature yesterday: 41 °F (at 5:51 AM)
Average temperature yesterday: 57 °F

Past Weeks' High & Low Weather Summary

 TemperatureHumidityPressure
High86 °F (Apr 10, 2:51 PM)93% (Apr 2, 6:51 AM)30.37 "Hg (Apr 2, 6:51 AM)
Low40 °F (Apr 15, 6:51 AM)18% (Apr 8, 2:51 PM)29.62 "Hg (Apr 13, 4:51 PM)
Average65 °F61%29.96 "Hg
* Reported Apr 2 6:51 AM — Apr 17 6:51 AM, Austin, Weather by CustomWeather, © 2014

Note: Actual official high and low records may vary slightly from our data, if they occured in-between our weather recording intervals... More about our weather records

Advertising

Historic Weather Conditions — Data for Previous 24 hours

 ConditionsComfort  
Time TempWeatherWind HumidityBarometerVisibility
6:51 AM
Apr 17
57 °FMostly cloudy.5 mph87%30.01 "Hg10 mi
5:51 AM56 °FOvercast.6 mph87%29.99 "Hg10 mi
4:51 AM56 °FOvercast.5 mph84%29.99 "Hg10 mi
3:51 AM56 °FOvercast.5 mph84%29.99 "Hg10 mi
2:51 AM57 °FOvercast.8 mph78%29.99 "Hg10 mi
1:51 AM57 °FOvercast.6 mph74%30.00 "Hg10 mi
12:51 AM58 °FClear.7 mph72%30.00 "Hg10 mi
11:51 PM
Apr 16
59 °FClear.8 mph67%30.00 "Hg10 mi
10:51 PM60 °FClear.5 mph62%29.98 "Hg10 mi
9:51 PM62 °FClear.10 mph58%29.98 "Hg10 mi
8:51 PM63 °FSunny.12 mph56%29.95 "Hg10 mi
7:51 PM65 °FSunny.13 mph52%29.94 "Hg10 mi
6:51 PM68 °FSunny.10 mph45%29.95 "Hg10 mi
5:51 PM71 °FPassing clouds.7 mph39%29.95 "Hg10 mi
4:51 PM72 °FSunny.N/A37%29.95 "Hg10 mi
3:51 PM72 °FSunny.9 mph35%29.97 "Hg10 mi
2:51 PM71 °FSunny.9 mph35%30.01 "Hg10 mi
1:51 PM69 °FSunny.15 mph36%30.04 "Hg10 mi
12:51 PM66 °FSunny.9 mph39%30.08 "Hg10 mi
11:51 AM65 °FSunny.10 mph42%30.11 "Hg10 mi
10:51 AM61 °FSunny.9 mph48%30.13 "Hg10 mi
9:51 AM54 °FSunny.5 mph49%30.13 "Hg10 mi
8:51 AM50 °FSunny.No wind59%30.15 "Hg10 mi
7:51 AM42 °FClear.No wind76%30.15 "Hg10 mi
Weather by CustomWeather, © 2014

See weather overview